Location: *
(50.0228°S, 177.2688°W)
Time: 01:17:17
(UTC+00:00)

Okean O Rocket - Pass Details

Date: 07 April 2020
Orbit: 623 x 644 km, 98.2° (Epoch: 29 May)

Event Time Altitude Azimuth Distance (km) Brightness Sun altitude
Rises 05:59:10 0° 167° (SSE) 2,982 4.9 -6.7°
Reaches altitude 10° 06:01:24 10° 167° (SSE) 2,061 4.1 -7.0°
Maximum altitude 06:05:55 81° 254° (WSW) 657 1.8 -7.7°
Drops below altitude 10° 06:10:19 10° 340° (NNW) 2,021 4.5 -8.4°
Sets 06:12:29 0° 341° (NNW) 2,918 5.3 -8.8°
